View from above orbital plane
|
View from above satellite
|
Ground track
|
The orbit data is extracted from the following two-line orbital elements,
1 19046U 88032B 21023.12765573 .00001026 00000-0 79824-4 0 9998
2 19046 97.3917 40.3116 0037317 177.2148 182.9292 15.02835194770245
Epoch (UTC): | 23 January 2021 03:03:49 |
Eccentricity: | 0.0037317 |
inclination: | 97.3917° |
perigee height: | 532 km |
apogee height: | 584 km |
right ascension of ascending node: | 40.3116° |
argument of perigee: | 177.2148° |
revolutions per day: | 15.02835194 |
mean anomaly at epoch: | 182.9292° |
orbit number at epoch: | 77024 |
The dashed part of the orbit path shows where the satellite is in the earth's shadow,
|
|